QPF
0.22 0.29 0.29 0.23 0.20 0.19 0.21 0.20 0.15 0.13 0.11 0.09 0.09 0.09 0.08 0.07 0.06 0.06 0.05 0.03 0.03 0.02 0.02 0.01 0.00 0.00 0.00 0.00 0.00 0.00 0.00 0.00 0.01 0.01 0.00 0.00 0.00 0.00 0.01 0.00 0.00 0.00 0.00
0.19 0.23 0.26 0.24 0.22 0.21 0.18 0.21 0.21 0.15 0.12 0.09 0.08 0.08 0.07 0.06 0.05 0.05 0.06 0.04 0.03 0.02 0.01 0.01 0.01 0.00 0.00 0.00 0.00 0.00 0.00 0.01 0.01 0.01 0.01 0.01 0.01 0.01 0.00 0.01 0.00 0.00 0.00
0.17 0.21 0.22 0.21 0.20 0.20 0.17 0.15 0.20 0.21 0.16 0.10 0.08 0.07 0.06 0.06 0.04 0.04 0.05 0.05 0.04 0.03 0.02 0.01 0.01 0.01 0.00 0.00 0.00 0.01 0.00 0.00 0.01 0.02 0.02 0.02 0.01 0.01 0.01 0.01 0.00 0.00 0.00
0.17 0.20 0.18 0.18 0.17 0.17 0.18 0.16 0.16 0.19 0.21 0.16 0.09 0.07 0.05 0.05 0.04 0.03 0.02 0.03 0.03 0.03 0.02 0.02 0.01 0.01 0.01 0.01 0.01 0.01 0.01 0.02 0.03 0.02 0.02 0.01 0.01 0.01 0.01 0.00 0.00 0.00 0.00
0.17 0.19 0.16 0.15 0.15 0.15 0.15 0.17 0.17 0.16 0.17 0.18 0.14 0.10 0.07 0.06 0.05 0.03 0.02 0.02 0.02 0.02 0.01 0.01 0.01 0.02 0.02 0.01 0.01 0.01 0.01 0.02 0.02 0.01 0.01 0.01 0.01 0.01 0.01 0.00 0.00 0.00 0.00
0.16 0.18 0.17 0.14 0.14 0.13 0.14 0.15 0.16 0.17 0.15 0.14 0.16 0.13 0.10 0.08 0.06 0.04 0.03 0.02 0.02 0.01 0.01 0.01 0.01 0.02 0.02 0.01 0.01 0.01 0.01 0.01 0.01 0.01 0.01 0.01 0.01 0.01 0.01 0.01 0.01 0.01 0.01
0.14 0.16 0.17 0.14 0.13 0.13 0.13 0.14 0.14 0.15 0.15 0.12 0.10 0.11 0.10 0.08 0.07 0.05 0.04 0.04 0.03 0.02 0.02 0.02 0.01 0.01 0.01 0.01 0.02 0.02 0.02 0.02 0.02 0.01 0.01 0.01 0.01 0.00 0.00 0.01 0.01 0.00 0.01
0.13 0.13 0.15 0.14 0.13 0.14 0.14 0.12 0.13 0.12 0.12 0.11 0.09 0.08 0.08 0.06 0.06 0.05 0.04 0.04 0.05 0.04 0.04 0.03 0.03 0.02 0.02 0.02 0.02 0.02 0.02 0.02 0.02 0.01 0.00 0.00 0.00 0.01 0.00 0.00 0.01 0.01 0.01
0.13 0.11 0.14 0.14 0.13 0.13 0.13 0.15 0.13 0.13 0.11 0.10 0.08 0.08 0.07 0.05 0.05 0.05 0.05 0.03 0.04 0.04 0.04 0.04 0.04 0.04 0.04 0.04 0.03 0.03 0.02 0.01 0.01 0.01 0.01 0.01 0.01 0.01 0.01 0.00 0.01 0.01 0.01
0.11 0.09 0.12 0.13 0.12 0.12 0.11 0.13 0.14 0.13 0.11 0.10 0.07 0.07 0.07 0.05 0.05 0.06 0.06 0.04 0.04 0.04 0.04 0.04 0.06 0.05 0.05 0.04 0.03 0.02 0.02 0.02 0.01 0.01 0.01 0.01 0.01 0.01 0.01 0.00 0.00 0.00 0.00
0.09 0.06 0.09 0.11 0.11 0.11 0.10 0.10 0.13 0.13 0.11 0.11 0.10 0.08 0.08 0.07 0.07 0.06 0.07 0.06 0.05 0.04 0.04 0.04 0.04 0.05 0.04 0.04 0.03 0.02 0.02 0.02 0.02 0.01 0.01 0.01 0.01 0.01 0.01 0.01 0.01 0.00 0.00
0.06 0.05 0.07 0.10 0.11 0.11 0.11 0.09 0.11 0.13 0.11 0.10 0.10 0.10 0.09 0.09 0.09 0.09 0.09 0.08 0.07 0.06 0.06 0.06 0.06 0.06 0.04 0.04 0.03 0.03 0.03 0.02 0.02 0.02 0.02 0.01 0.01 0.01 0.01 0.01 0.00 0.00 0.00
0.04 0.04 0.06 0.09 0.12 0.12 0.10 0.09 0.11 0.12 0.10 0.09 0.09 0.10 0.09 0.09 0.10 0.10 0.10 0.11 0.09 0.07 0.07 0.08 0.08 0.07 0.06 0.05 0.04 0.04 0.03 0.03 0.02 0.02 0.02 0.02 0.02 0.01 0.01 0.01 0.00 0.00 0.01
0.03 0.04 0.05 0.07 0.12 0.13 0.11 0.09 0.09 0.10 0.08 0.07 0.07 0.07 0.08 0.07 0.06 0.07 0.08 0.08 0.09 0.08 0.08 0.10 0.10 0.08 0.06 0.05 0.04 0.04 0.04 0.04 0.03 0.02 0.02 0.02 0.02 0.01 0.01 0.01 0.01 0.01 0.02
0.04 0.04 0.05 0.06 0.11 0.13 0.12 0.11 0.09 0.08 0.07 0.06 0.05 0.04 0.04 0.05 0.06 0.07 0.06 0.05 0.05 0.06 0.06 0.07 0.07 0.07 0.05 0.04 0.04 0.04 0.04 0.03 0.03 0.02 0.02 0.02 0.01 0.01 0.01 0.01 0.01 0.02 0.02
0.04 0.04 0.05 0.06 0.09 0.11 0.11 0.13 0.14 0.11 0.09 0.08 0.06 0.05 0.04 0.05 0.06 0.06 0.06 0.06 0.06 0.07 0.07 0.06 0.06 0.05 0.04 0.04 0.04 0.03 0.03 0.02 0.02 0.01 0.01 0.01 0.01 0.01 0.01 0.01 0.02 0.02 0.02
0.06 0.05 0.05 0.06 0.08 0.10 0.10 0.11 0.14 0.14 0.13 0.11 0.10 0.09 0.08 0.07 0.06 0.06 0.07 0.08 0.10 0.09 0.07 0.07 0.06 0.05 0.04 0.03 0.03 0.02 0.02 0.01 0.01 0.01 0.02 0.02 0.01 0.02 0.02 0.02 0.02 0.02 0.02
0.07 0.08 0.07 0.06 0.07 0.10 0.10 0.10 0.11 0.10 0.10 0.11 0.13 0.13 0.10 0.09 0.08 0.08 0.09 0.10 0.12 0.11 0.07 0.07 0.06 0.04 0.03 0.02 0.02 0.01 0.01 0.01 0.01 0.01 0.02 0.02 0.02 0.02 0.02 0.02 0.02 0.02 0.02
0.08 0.08 0.07 0.07 0.07 0.09 0.11 0.10 0.11 0.10 0.08 0.09 0.11 0.14 0.13 0.13 0.13 0.12 0.11 0.08 0.07 0.07 0.06 0.06 0.05 0.03 0.02 0.02 0.01 0.01 0.01 0.01 0.01 0.01 0.01 0.01 0.01 0.01 0.01 0.01 0.01 0.01 0.01
0.09 0.09 0.09 0.07 0.07 0.09 0.11 0.11 0.11 0.09 0.09 0.09 0.09 0.11 0.12 0.12 0.12 0.13 0.10 0.08 0.06 0.05 0.05 0.05 0.04 0.03 0.02 0.01 0.01 0.01 0.01 0.01 0.01 0.01 0.01 0.01 0.01 0.01 0.01 0.01 0.01 0.01 0.01
0.10 0.09 0.11 0.09 0.08 0.09 0.12 0.11 0.10 0.08 0.09 0.09 0.09 0.10 0.10 0.08 0.08 0.07 0.07 0.06 0.05 0.05 0.04 0.04 0.03 0.02 0.02 0.01 0.01 0.01 0.01 0.01 0.01 0.01 0.00 0.01 0.01 0.01 0.01 0.01 0.01 0.01 0.01
0.12 0.11 0.10 0.09 0.09 0.10 0.12 0.12 0.11 0.09 0.09 0.09 0.09 0.11 0.12 0.09 0.08 0.07 0.06 0.05 0.05 0.05 0.04 0.03 0.02 0.02 0.02 0.02 0.02 0.02 0.01 0.01 0.01 0.01 0.01 0.01 0.01 0.01 0.01 0.01 0.01 0.01 0.00
0.14 0.12 0.11 0.11 0.10 0.11 0.12 0.12 0.12 0.11 0.10 0.09 0.09 0.09 0.10 0.08 0.07 0.06 0.06 0.06 0.05 0.06 0.05 0.03 0.02 0.02 0.02 0.02 0.02 0.02 0.02 0.02 0.01 0.01 0.01 0.01 0.01 0.01 0.01 0.00 0.00 0.00 0.00
0.16 0.12 0.10 0.10 0.11 0.11 0.11 0.12 0.12 0.12 0.12 0.10 0.10 0.10 0.09 0.08 0.07 0.07 0.06 0.06 0.06 0.06 0.05 0.03 0.02 0.02 0.03 0.03 0.03 0.03 0.02 0.02 0.02 0.01 0.01 0.01 0.01 0.00 0.00 0.00 0.00 0.00 0.00
0.17 0.13 0.10 0.08 0.09 0.10 0.10 0.11 0.12 0.13 0.12 0.11 0.12 0.11 0.10 0.09 0.08 0.08 0.07 0.07 0.06 0.05 0.05 0.04 0.04 0.03 0.03 0.03 0.03 0.03 0.02 0.02 0.01 0.01 0.01 0.01 0.01 0.00 0.00 0.00 0.00 0.00 0.00
0.16 0.12 0.10 0.08 0.07 0.08 0.09 0.10 0.12 0.13 0.12 0.11 0.11 0.11 0.10 0.10 0.09 0.08 0.07 0.07 0.06 0.05 0.05 0.05 0.05 0.04 0.04 0.04 0.03 0.02 0.02 0.01 0.01 0.01 0.01 0.01 0.01 0.00 0.00 0.00 0.00 0.00 0.00
MSLP
989.14 989.55 990.15 990.87 991.68 992.57 993.54 994.62 995.80 997.08 998.46 999.88 1001.30 1002.66 1003.92 1005.07 1006.08 1006.98 1007.78 1008.52 1009.23 1009.91 1010.57 1011.19 1011.76 1012.25 1012.67 1013.01 1013.30 1013.56 1013.83 1014.13 1014.48 1014.88 1015.30 1015.73 1016.12 1016.43 1016.66 1016.79 1016.83 1016.80 1016.72
988.48 988.83 989.45 990.27 991.24 992.32 993.48 994.71 996.00 997.33 998.67 1000.01 1001.31 1002.55 1003.71 1004.78 1005.77 1006.69 1007.55 1008.37 1009.15 1009.89 1010.58 1011.20 1011.75 1012.21 1012.58 1012.89 1013.17 1013.44 1013.75 1014.11 1014.52 1014.99 1015.48 1015.95 1016.37 1016.70 1016.93 1017.03 1017.03 1016.95 1016.82
988.12 988.44 989.08 989.98 991.07 992.29 993.60 994.95 996.31 997.64 998.94 1000.19 1001.37 1002.49 1003.55 1004.55 1005.52 1006.45 1007.36 1008.25 1009.10 1009.91 1010.64 1011.28 1011.82 1012.27 1012.63 1012.93 1013.21 1013.50 1013.85 1014.26 1014.74 1015.27 1015.81 1016.33 1016.77 1017.11 1017.32 1017.41 1017.38 1017.25 1017.06
988.10 988.40 989.06 990.00 991.17 992.49 993.89 995.30 996.69 998.01 999.26 1000.41 1001.49 1002.50 1003.47 1004.42 1005.36 1006.31 1007.27 1008.21 1009.13 1009.99 1010.77 1011.44 1012.00 1012.45 1012.82 1013.13 1013.43 1013.76 1014.15 1014.62 1015.15 1015.73 1016.31 1016.86 1017.32 1017.66 1017.87 1017.94 1017.88 1017.71 1017.48
988.42 988.71 989.36 990.31 991.51 992.86 994.29 995.72 997.10 998.40 999.59 1000.68 1001.68 1002.61 1003.52 1004.42 1005.35 1006.31 1007.30 1008.30 1009.27 1010.18 1011.00 1011.71 1012.30 1012.77 1013.16 1013.51 1013.84 1014.22 1014.66 1015.17 1015.74 1016.36 1016.97 1017.53 1018.00 1018.34 1018.54 1018.59 1018.51 1018.32 1018.06
989.02 989.29 989.90 990.82 991.99 993.32 994.73 996.15 997.51 998.78 999.93 1000.97 1001.92 1002.81 1003.69 1004.58 1005.50 1006.48 1007.50 1008.52 1009.53 1010.48 1011.34 1012.09 1012.71 1013.22 1013.65 1014.04 1014.43 1014.85 1015.33 1015.88 1016.49 1017.12 1017.74 1018.30 1018.76 1019.09 1019.28 1019.32 1019.22 1019.02 1018.73
989.82 990.04 990.59 991.44 992.54 993.81 995.16 996.54 997.86 999.10 1000.24 1001.26 1002.20 1003.09 1003.97 1004.87 1005.81 1006.80 1007.83 1008.88 1009.92 1010.89 1011.78 1012.56 1013.22 1013.78 1014.26 1014.69 1015.13 1015.60 1016.12 1016.70 1017.32 1017.95 1018.55 1019.09 1019.53 1019.83 1020.00 1020.02 1019.92 1019.71 1019.41
990.69 990.84 991.31 992.07 993.06 994.24 995.52 996.84 998.14 999.37 1000.50 1001.54 1002.51 1003.43 1004.34 1005.26 1006.23 1007.24 1008.29 1009.35 1010.40 1011.39 1012.30 1013.10 1013.80 1014.41 1014.94 1015.43 1015.92 1016.43 1016.97 1017.56 1018.16 1018.77 1019.34 1019.83 1020.22 1020.49 1020.63 1020.64 1020.53 1020.32 1020.02
991.52 991.60 991.98 992.62 993.52 994.60 995.80 997.07 998.34 999.57 1000.73 1001.81 1002.82 1003.79 1004.75 1005.72 1006.71 1007.75 1008.81 1009.88 1010.93 1011.93 1012.86 1013.69 1014.43 1015.08 1015.67 1016.21 1016.73 1017.27 1017.83 1018.40 1018.97 1019.53 1020.04 1020.47 1020.81 1021.02 1021.12 1021.11 1020.99 1020.77 1020.48
992.24 992.25 992.54 993.09 993.88 994.88 996.02 997.24 998.50 999.74 1000.94 1002.07 1003.14 1004.17 1005.19 1006.20 1007.23 1008.28 1009.36 1010.43 1011.49 1012.50 1013.45 1014.31 1015.09 1015.78 1016.41 1016.99 1017.55 1018.10 1018.65 1019.19 1019.72 1020.21 1020.65 1021.00 1021.26 1021.42 1021.47 1021.42 1021.29 1021.08 1020.79
992.79 992.76 992.98 993.46 994.19 995.13 996.23 997.43 998.68 999.94 1001.17 1002.36 1003.49 1004.57 1005.63 1006.69 1007.75 1008.82 1009.91 1010.99 1012.06 1013.08 1014.05 1014.94 1015.76 1016.49 1017.16 1017.78 1018.36 1018.91 1019.44 1019.94 1020.40 1020.82 1021.17 1021.44 1021.62 1021.71 1021.71 1021.63 1021.47 1021.25 1020.97
993.19 993.14 993.34 993.80 994.50 995.41 996.50 997.70 998.96 1000.23 1001.49 1002.71 1003.88 1005.01 1006.10 1007.19 1008.27 1009.36 1010.46 1011.55 1012.63 1013.68 1014.67 1015.59 1016.45 1017.22 1017.92 1018.56 1019.15 1019.69 1020.19 1020.64 1021.04 1021.38 1021.65 1021.83 1021.94 1021.96 1021.90 1021.78 1021.59 1021.36 1021.07
993.47 993.44 993.67 994.15 994.87 995.80 996.90 998.11 999.39 1000.68 1001.96 1003.19 1004.38 1005.52 1006.63 1007.72 1008.81 1009.91 1011.02 1012.13 1013.23 1014.29 1015.32 1016.27 1017.16 1017.96 1018.69 1019.34 1019.93 1020.45 1020.91 1021.31 1021.65 1021.92 1022.11 1022.23 1022.26 1022.22 1022.11 1021.95 1021.73 1021.47 1021.16
993.69 993.73 994.03 994.58 995.36 996.35 997.48 998.72 1000.02 1001.32 1002.60 1003.83 1005.01 1006.14 1007.25 1008.33 1009.42 1010.52 1011.64 1012.76 1013.87 1014.96 1016.01 1016.99 1017.90 1018.73 1019.47 1020.12 1020.70 1021.19 1021.62 1021.97 1022.26 1022.47 1022.60 1022.66 1022.64 1022.55 1022.40 1022.19 1021.93 1021.62 1021.28
993.91 994.07 994.48 995.14 996.02 997.08 998.28 999.56 1000.87 1002.17 1003.44 1004.65 1005.80 1006.91 1007.99 1009.06 1010.14 1011.23 1012.34 1013.47 1014.60 1015.70 1016.76 1017.76 1018.68 1019.52 1020.25 1020.90 1021.45 1021.92 1022.31 1022.62 1022.87 1023.03 1023.13 1023.15 1023.09 1022.96 1022.77 1022.52 1022.21 1021.86 1021.46
994.21 994.50 995.06 995.85 996.85 998.01 999.27 1000.59 1001.92 1003.22 1004.47 1005.65 1006.77 1007.84 1008.89 1009.93 1010.99 1012.06 1013.17 1014.29 1015.42 1016.52 1017.58 1018.58 1019.49 1020.31 1021.03 1021.65 1022.17 1022.61 1022.97 1023.25 1023.46 1023.61 1023.68 1023.67 1023.59 1023.44 1023.22 1022.92 1022.57 1022.16 1021.69
994.62 995.06 995.76 996.70 997.82 999.07 1000.41 1001.77 1003.12 1004.41 1005.64 1006.79 1007.88 1008.91 1009.93 1010.94 1011.97 1013.03 1014.12 1015.22 1016.33 1017.42 1018.45 1019.42 1020.31 1021.09 1021.78 1022.36 1022.85 1023.25 1023.58 1023.84 1024.03 1024.16 1024.22 1024.21 1024.12 1023.95 1023.69 1023.36 1022.96 1022.49 1021.95
995.18 995.76 996.60 997.66 998.89 1000.24 1001.63 1003.04 1004.40 1005.69 1006.90 1008.03 1009.08 1010.09 1011.08 1012.07 1013.07 1014.11 1015.17 1016.24 1017.32 1018.36 1019.35 1020.28 1021.11 1021.84 1022.48 1023.01 1023.46 1023.83 1024.13 1024.37 1024.56 1024.68 1024.73 1024.71 1024.61 1024.43 1024.15 1023.79 1023.34 1022.80 1022.20
995.90 996.60 997.55 998.71 1000.03 1001.44 1002.88 1004.31 1005.68 1006.97 1008.17 1009.28 1010.32 1011.32 1012.29 1013.26 1014.24 1015.25 1016.28 1017.31 1018.33 1019.32 1020.25 1021.11 1021.87 1022.54 1023.11 1023.60 1024.00 1024.34 1024.61 1024.84 1025.01 1025.13 1025.18 1025.16 1025.05 1024.85 1024.55 1024.15 1023.65 1023.07 1022.41
996.80 997.57 998.60 999.82 1001.18 1002.62 1004.09 1005.52 1006.90 1008.19 1009.39 1010.50 1011.54 1012.53 1013.50 1014.46 1015.43 1016.41 1017.40 1018.38 1019.34 1020.26 1021.11 1021.88 1022.57 1023.17 1023.68 1024.11 1024.47 1024.77 1025.03 1025.24 1025.40 1025.51 1025.55 1025.52 1025.40 1025.18 1024.85 1024.42 1023.89 1023.27 1022.56
997.86 998.67 999.72 1000.96 1002.33 1003.77 1005.23 1006.65 1008.02 1009.31 1010.50 1011.62 1012.67 1013.68 1014.65 1015.61 1016.57 1017.52 1018.47 1019.40 1020.29 1021.12 1021.90 1022.59 1023.19 1023.72 1024.17 1024.55 1024.87 1025.14 1025.38 1025.57 1025.72 1025.82 1025.85 1025.80 1025.65 1025.41 1025.06 1024.60 1024.04 1023.39 1022.67
999.08 999.89 1000.92 1002.13 1003.47 1004.87 1006.29 1007.68 1009.02 1010.30 1011.50 1012.62 1013.69 1014.71 1015.70 1016.66 1017.61 1018.54 1019.45 1020.32 1021.14 1021.90 1022.59 1023.20 1023.74 1024.20 1024.59 1024.92 1025.21 1025.46 1025.68 1025.85 1025.99 1026.06 1026.07 1025.99 1025.82 1025.55 1025.17 1024.69 1024.12 1023.46 1022.74
1000.42 1001.19 1002.17 1003.32 1004.58 1005.91 1007.26 1008.61 1009.91 1011.16 1012.36 1013.49 1014.58 1015.62 1016.62 1017.59 1018.53 1019.45 1020.31 1021.13 1021.89 1022.58 1023.19 1023.73 1024.20 1024.61 1024.96 1025.26 1025.52 1025.75 1025.94 1026.10 1026.21 1026.26 1026.24 1026.13 1025.93 1025.63 1025.23 1024.73 1024.16 1023.51 1022.80
1001.84 1002.55 1003.45 1004.51 1005.67 1006.91 1008.18 1009.46 1010.71 1011.93 1013.11 1014.25 1015.34 1016.40 1017.42 1018.40 1019.33 1020.22 1021.06 1021.83 1022.53 1023.16 1023.71 1024.20 1024.61 1024.97 1025.28 1025.56 1025.80 1026.00 1026.18 1026.32 1026.40 1026.42 1026.37 1026.23 1026.00 1025.67 1025.25 1024.75 1024.18 1023.55 1022.88
1003.29 1003.92 1004.73 1005.69 1006.75 1007.88 1009.06 1010.25 1011.44 1012.63 1013.79 1014.92 1016.02 1017.08 1018.11 1019.09 1020.03 1020.90 1021.71 1022.44 1023.09 1023.67 1024.17 1024.61 1024.98 1025.30 1025.59 1025.84 1026.06 1026.25 1026.40 1026.51 1026.57 1026.56 1026.48 1026.30 1026.05 1025.70 1025.28 1024.78 1024.22 1023.62 1022.99
1004.71 1005.27 1005.98 1006.83 1007.79 1008.82 1009.90 1011.01 1012.14 1013.28 1014.41 1015.53 1016.63 1017.70 1018.73 1019.71 1020.64 1021.50 1022.28 1022.98 1023.60 1024.13 1024.60 1024.99 1025.33 1025.63 1025.89 1026.11 1026.31 1026.48 1026.61 1026.69 1026.72 1026.69 1026.57 1026.38 1026.10 1025.75 1025.32 1024.84 1024.31 1023.74 1023.14
Thickness
5553 5563 5572 5583 5591 5598 5605 5612 5616 5620 5623 5625 5625 5626 5626 5626 5626 5625 5625 5624 5622 5620 5618 5616 5614 5612 5609 5606 5604 5601 5598 5594 5587 5581 5576 5571 5565 5560 5554 5549 5544 5538 5532
5548 5557 5566 5576 5585 5592 5601 5607 5611 5615 5618 5621 5622 5622 5623 5623 5623 5623 5622 5622 5620 5617 5615 5612 5610 5608 5604 5601 5598 5595 5592 5588 5582 5574 5568 5562 5557 5552 5547 5541 5536 5530 5524
5543 5552 5561 5570 5578 5588 5596 5602 5606 5610 5614 5617 5619 5620 5620 5620 5620 5620 5620 5619 5618 5615 5613 5610 5606 5603 5599 5596 5593 5590 5586 5583 5577 5570 5562 5555 5549 5544 5538 5533 5527 5521 5516
5537 5546 5554 5564 5573 5582 5590 5596 5601 5606 5609 5613 5616 5617 5617 5617 5617 5617 5617 5616 5614 5612 5609 5606 5604 5600 5596 5593 5589 5585 5580 5575 5570 5563 5555 5548 5541 5535 5530 5524 5518 5512 5507
5530 5539 5548 5558 5567 5576 5583 5590 5595 5600 5605 5607 5610 5612 5613 5613 5614 5614 5613 5612 5609 5606 5603 5601 5599 5596 5592 5589 5585 5580 5575 5569 5562 5555 5548 5541 5533 5526 5521 5515 5509 5503 5497
5523 5533 5542 5551 5560 5569 5576 5583 5588 5594 5599 5602 5605 5608 5609 5611 5610 5610 5609 5607 5605 5602 5599 5596 5593 5589 5586 5582 5579 5575 5571 5564 5557 5550 5542 5535 5528 5521 5514 5508 5500 5493 5487
5516 5526 5536 5544 5553 5562 5569 5576 5582 5588 5592 5595 5599 5602 5604 5605 5605 5605 5604 5603 5601 5598 5595 5591 5587 5583 5579 5574 5570 5566 5561 5557 5553 5547 5538 5531 5523 5517 5509 5501 5492 5484 5477
5509 5518 5528 5537 5545 5554 5562 5569 5575 5582 5586 5590 5595 5598 5599 5600 5599 5598 5597 5596 5594 5592 5590 5587 5582 5577 5573 5568 5562 5556 5551 5546 5543 5538 5532 5525 5518 5511 5504 5495 5486 5476 5468
5502 5511 5521 5529 5537 5547 5556 5563 5570 5575 5580 5585 5589 5592 5593 5593 5593 5592 5591 5589 5587 5585 5583 5580 5576 5572 5567 5563 5556 5548 5541 5535 5531 5528 5522 5516 5510 5503 5495 5486 5476 5467 5458
5496 5505 5514 5522 5530 5540 5549 5556 5563 5570 5575 5579 5583 5587 5589 5588 5586 5587 5585 5584 5581 5578 5575 5573 5570 5566 5561 5557 5551 5545 5536 5528 5522 5516 5511 5505 5498 5491 5484 5477 5469 5459 5450
5489 5498 5507 5515 5523 5533 5542 5550 5557 5564 5569 5574 5578 5580 5583 5582 5580 5580 5580 5580 5578 5573 5570 5566 5563 5559 5555 5551 5546 5540 5534 5524 5515 5508 5501 5494 5487 5480 5473 5467 5460 5452 5442
5482 5492 5501 5509 5518 5527 5535 5543 5550 5558 5563 5567 5571 5572 5574 5574 5574 5574 5574 5575 5573 5570 5565 5561 5556 5552 5548 5543 5538 5532 5524 5517 5508 5500 5492 5485 5478 5470 5463 5456 5449 5442 5434
5476 5485 5494 5503 5511 5521 5529 5537 5544 5551 5556 5561 5564 5566 5567 5567 5567 5567 5566 5565 5564 5562 5558 5554 5549 5543 5539 5534 5529 5523 5516 5509 5502 5494 5485 5477 5470 5463 5455 5447 5439 5432 5424
5469 5478 5487 5495 5504 5514 5523 5531 5538 5544 5551 5555 5558 5560 5561 5560 5560 5559 5558 5556 5553 5550 5547 5543 5538 5533 5529 5524 5518 5512 5507 5502 5496 5488 5479 5470 5462 5454 5446 5439 5431 5423 5414
5463 5472 5481 5490 5498 5508 5517 5524 5532 5541 5548 5552 5555 5558 5558 5557 5557 5557 5555 5550 5547 5543 5538 5533 5527 5522 5518 5513 5507 5502 5498 5493 5486 5479 5471 5463 5455 5446 5438 5431 5423 5415 5406
5457 5466 5475 5484 5491 5500 5509 5516 5524 5533 5539 5544 5550 5553 5553 5553 5550 5548 5546 5544 5540 5536 5532 5527 5522 5518 5514 5508 5501 5494 5489 5485 5479 5472 5464 5457 5448 5439 5431 5423 5415 5407 5398
5452 5461 5469 5477 5485 5493 5502 5510 5516 5522 5529 5535 5540 5543 5545 5543 5542 5540 5538 5535 5532 5530 5527 5522 5518 5513 5508 5502 5496 5489 5483 5477 5471 5464 5457 5449 5441 5432 5424 5416 5408 5399 5391
5447 5455 5464 5471 5479 5487 5496 5504 5511 5516 5520 5524 5528 5533 5535 5535 5534 5532 5530 5526 5522 5521 5521 5518 5513 5508 5503 5496 5490 5484 5477 5470 5464 5457 5449 5441 5434 5425 5417 5409 5400 5392 5384
5442 5451 5459 5466 5473 5480 5489 5496 5503 5509 5514 5516 5518 5520 5523 5524 5524 5523 5522 5522 5520 5517 5514 5511 5507 5502 5496 5491 5485 5479 5472 5465 5458 5450 5442 5434 5427 5419 5410 5402 5393 5386 5376
5438 5447 5455 5461 5467 5474 5482 5489 5496 5501 5505 5508 5511 5512 5513 5514 5515 5514 5514 5514 5514 5511 5509 5505 5500 5495 5490 5485 5479 5472 5465 5458 5450 5443 5435 5428 5420 5412 5404 5395 5387 5378 5369
5434 5443 5451 5457 5463 5470 5477 5484 5490 5494 5498 5500 5503 5506 5509 5511 5511 5509 5508 5507 5507 5506 5503 5499 5494 5489 5484 5479 5473 5466 5459 5452 5444 5437 5429 5422 5414 5405 5397 5388 5380 5371 5363
5431 5439 5447 5454 5460 5466 5472 5478 5483 5487 5491 5493 5494 5497 5501 5504 5503 5502 5500 5500 5500 5499 5497 5493 5488 5484 5480 5474 5469 5462 5454 5446 5438 5431 5423 5415 5407 5399 5390 5382 5373 5365 5357
5428 5436 5443 5450 5456 5462 5467 5472 5476 5481 5484 5486 5489 5491 5493 5495 5496 5495 5494 5493 5491 5490 5488 5485 5481 5476 5471 5467 5462 5457 5451 5443 5436 5428 5419 5409 5400 5392 5384 5376 5368 5360 5352
5425 5433 5440 5446 5451 5456 5461 5465 5469 5473 5477 5480 5482 5484 5487 5488 5488 5487 5486 5485 5483 5481 5480 5477 5474 5470 5465 5459 5454 5449 5444 5438 5430 5422 5414 5406 5396 5386 5378 5369 5362 5354 5347
5421 5428 5435 5441 5445 5450 5454 5458 5462 5466 5470 5473 5475 5477 5479 5480 5480 5479 5478 5477 5476 5474 5471 5469 5465 5461 5457 5453 5447 5442 5436 5430 5423 5415 5407 5399 5390 5381 5372 5364 5357 5349 5341
5418 5424 5430 5435 5440 5445 5449 5452 5455 5459 5463 5466 5469 5471 5473 5474 5474 5473 5471 5470 5468 5466 5463 5460 5458 5454 5450 5445 5440 5434 5428 5422 5415 5408 5401 5392 5383 5375 5367 5359 5351 5344 5336